Pagina principale
METAR-TAF:

METAR-TAF

Aeroporti :

Taunton Municipal Airport (King Field)

Taunton, Massachusetts, Stati Uniti

latitudine: 41-52-32N, longitudine: 071-01-16W, altezza: 13 m

Osservazione

Il bollettino è stato emesso 17 minuti fa, alle 22:22 UTC
Vento 6 kt da nord
Temperature -1°C
Umidità 80%
Pressione 1013 hPa
Visibilità: 16.1 km
Poco nuvoloso ad un'altezza di 1300 ft
Cielo coperto ad un'altezza di 2400 ft

METAR: KTAN 182222Z AUTO 35006KT 10SM FEW013 OVC024 M01/M04 A2991 RMK AO2 T10061044

Ora: 17:39 (22:39 UTC)


TAF: mancante

Osservazioni e previsioni meteorologiche di più di 4000 aeroporti (messaggi METAR e TAF).

Le stazioni disponibili sono rappresentate dai dischi gialli e rossi sulla carta.

Puntare il mouse per vedere il nome della stazione.

Clicca sopra per visualizzare le osservazioni e previsioni meteorologiche.

Per cambiare la mappa : fare clic sui pulsanti verdi con una croce nera per ingrandire, il pulsante verde con un trattino per diminuire, o sulla freccia verde per le mappe adiacenti.


METAR-TAF: